Temperature
16 16 16 16 13 10 12 12 12 12 12 12 12 12 11 11 11 12 11 11 11 11 11 12 12 12 12 12 13 13 13 13 13 14 14 14 14 14 14 14 14 14 14 14 14 14 14 14 14
15 16 16 15 11 12 12 12 12 12 11 11 11 11 11 10 10 10 10 11 11 11 11 11 11 12 12 12 12 13 13 13 13 13 13 13 13 14 14 14 14 14 14 14 14 14 14 14 14
15 15 16 10 10 11 12 12 11 10 11 11 10 10 10 10 10 10 10 10 10 11 11 11 11 11 12 12 12 12 12 12 13 13 13 13 13 13 13 13 13 14 14 14 14 14 14 14 14
15 15 14 10 11 11 11 11 10 10 10 10 10 9 9 9 9 10 10 10 10 10 10 11 11 11 11 11 12 12 12 12 12 12 12 13 13 13 13 13 13 13 13 13 13 14 14 14 14
15 14 10 9 10 10 10 10 10 9 9 9 9 8 8 9 9 10 10 10 10 10 10 10 10 11 11 11 11 11 11 12 12 12 12 12 12 12 12 12 12 13 13 13 13 13 13 13 13
14 10 9 10 10 10 9 10 10 8 8 8 8 8 8 9 9 9 9 9 9 10 10 10 10 10 10 11 11 11 11 11 11 11 12 12 12 12 12 12 12 12 12 13 13 13 13 13 13
12 8 9 9 9 10 10 9 9 8 8 8 9 8 8 9 9 9 9 9 9 9 9 9 9 10 10 10 10 10 10 10 11 11 11 11 11 12 12 12 12 12 12 12 12 12 12 13 13
12 7 9 8 9 9 9 9 9 9 8 9 9 8 8 9 8 8 8 8 8 9 9 9 9 9 9 9 10 10 10 10 10 10 11 11 11 11 11 12 12 12 12 12 12 12 12 12 12
11 7 8 8 8 9 9 8 8 9 8 8 8 8 9 8 8 8 8 8 8 8 8 8 8 9 9 9 9 9 9 9 10 10 10 11 11 11 11 11 11 11 12 12 12 12 12 12 12
9 7 8 8 8 8 8 8 8 8 7 7 7 8 8 8 8 8 8 8 8 8 8 8 8 8 8 8 9 9 9 9 9 10 10 10 10 11 11 11 11 11 11 11 12 12 12 12 12
7 7 8 8 8 8 8 8 8 7 6 7 8 8 8 8 7 7 7 7 7 7 7 7 7 8 8 8 8 8 8 8 9 9 9 10 10 10 10 10 10 10 11 11 11 11 11 11 11
6 6 7 8 8 8 7 7 7 7 8 9 9 8 8 7 7 7 7 7 7 7 7 7 7 7 7 7 8 8 8 8 8 8 8 9 9 9 9 10 10 10 10 10 10 10 11 11 11
6 6 7 7 7 7 7 6 7 7 8 8 8 8 7 7 7 7 7 7 7 7 7 6 7 7 7 7 7 7 7 7 7 8 8 8 8 9 9 9 9 9 10 10 10 10 10 10 10
6 6 6 7 7 7 6 6 5 6 8 8 8 7 7 7 7 7 6 6 6 6 6 6 6 6 6 6 6 6 6 7 7 7 7 7 8 8 8 8 9 9 9 9 9 9 9 10 10
6 6 6 6 6 6 6 5 4 7 7 7 7 7 7 7 6 6 6 6 6 6 5 5 5 5 5 5 6 6 6 6 6 6 7 7 7 7 8 8 8 8 8 9 9 9 9 9 9
6 5 5 6 5 5 6 6 6 6 6 6 6 6 6 6 6 6 6 6 5 5 5 5 5 5 5 5 5 5 5 5 6 6 6 6 6 7 7 7 7 8 8 8 8 8 9 9 9
5 5 5 5 5 4 4 5 5 5 5 5 5 5 5 5 5 5 5 5 5 5 4 4 4 4 4 4 4 4 5 5 5 5 5 5 6 6 6 7 7 7 7 7 8 8 8 8 8
5 5 5 5 4 3 3 3 4 4 4 4 4 4 4 5 5 5 4 4 4 4 4 4 3 3 3 3 3 3 4 4 4 4 5 5 5 5 5 6 6 6 7 7 7 7 7 8 8
5 4 4 4 4 3 2 3 3 3 3 3 3 3 3 4 4 4 3 3 3 3 3 3 3 3 3 3 3 3 3 3 4 4 4 4 4 4 5 5 5 6 6 6 7 7 7 7 7
4 4 4 4 4 3 2 2 2 2 2 2 2 2 2 3 3 3 3 3 3 3 3 3 2 2 2 2 2 2 2 2 3 3 3 3 4 4 4 4 5 5 5 6 6 6 6 6 7
4 3 3 4 3 3 2 3 2 2 2 2 2 2 2 2 2 2 2 2 2 2 2 2 2 2 2 2 1 2 2 2 2 2 3 3 3 3 4 4 4 5 5 5 5 6 5 6 6
4 3 3 3 2 2 2 2 2 1 1 1 1 1 1 1 1 2 2 2 1 1 1 2 2 2 1 1 1 1 1 1 2 2 2 2 3 3 3 3 4 4 4 4 5 5 5 5 5
3 2 2 2 1 1 0 1 2 1 1 1 0 0 0 1 1 1 1 1 1 1 1 1 1 1 1 1 0 0 1 1 1 1 2 2 2 2 3 3 3 3 4 4 4 4 4 4 5
2 1 1 -0 -0 1 0 0 1 0 1 1 -0 -0 -0 0 0 1 1 1 1 0 0 0 0 1 0 0 0 -0 0 0 0 1 1 1 2 2 2 2 2 3 3 3 3 4 4 4 4
1 1 1 1 -0 1 -0 -0 1 1 -0 -0 -1 -1 -0 -0 -0 0 0 0 0 0 -0 -0 -0 0 0 -0 -0 -0 -0 -0 -0 0 1 1 1 1 2 2 2 2 2 2 3 3 3 3 4
1 1 2 2 1 0 -1 -1 0 -0 -1 -1 -1 -1 -1 -1 -1 -0 -0 -0 -0 -1 -0 -0 -0 -0 -0 -0 -0 -1 -1 -1 -1 -0 0 0 1 1 1 1 1 2 2 2 2 2 3 3 3
1 0 0 -0 -1 -2 -1 -1 -1 -0 -1 -2 -2 -2 -2 -1 -1 -1 -1 -1 -1 -1 -1 -1 -1 -1 -1 -1 -1 -1 -1 -1 -1 -1 -0 -0 -0 0 0 1 1 1 1 1 1 2 2 2 2
0 -1 -2 -1 -0 -0 -0 -1 -0 -0 -1 -2 -3 -3 -2 -2 -1 -1 -1 -1 -1 -1 -1 -1 -1 -1 -1 -1 -1 -1 -1 -2 -1 -1 -1 -1 -1 -0 -0 0 0 1 1 1 1 1 2 2 2
-1 -1 -1 -2 -1 -1 -1 0 -1 -1 -2 -3 -3 -3 -3 -3 -2 -2 -2 -2 -2 -1 -1 -1 -2 -2 -2 -2 -2 -2 -2 -2 -2 -2 -1 -1 -1 -1 -1 -1 -0 0 0 1 1 1 1 1 2
-1 -1 -2 -1 -1 -3 -2 -1 -2 -3 -3 -3 -3 -3 -3 -3 -3 -3 -2 -2 -2 -2 -2 -2 -2 -2 -2 -2 -2 -2 -2 -2 -2 -2 -1 -1 -1 -1 -1 -1 -1 -1 -0 -0 0 0 1 1 1
Wind_Speed
8 4 3 4 5 4 2 3 2 1 1 0 2 4 5 4 3 3 1 3 4 3 4 4 5 7 8 8 9 10 10 10 11 10 10 9 9 8 8 8 8 9 9 10 11 11 12 13 14
4 2 5 5 5 2 5 4 3 3 3 3 3 3 4 2 2 2 1 3 4 4 4 4 7 8 8 8 8 9 9 10 10 10 10 9 9 8 8 8 8 8 9 9 10 11 12 13 14
2 5 5 5 4 6 5 3 4 1 3 3 3 3 2 1 1 1 1 2 4 5 5 5 7 8 8 8 9 8 8 9 9 9 10 10 9 9 8 8 8 8 8 9 9 11 12 13 13
4 5 5 4 4 4 3 1 2 4 2 3 3 2 1 2 1 1 1 3 4 5 6 5 7 8 8 8 8 9 9 8 8 9 9 9 9 9 8 8 7 8 8 8 9 10 11 12 12
4 5 4 0 4 3 2 1 4 3 2 1 2 3 1 2 2 3 3 3 4 4 6 6 6 7 8 8 8 8 8 8 8 8 8 8 8 9 9 8 7 7 7 8 8 9 11 11 11
5 5 3 4 4 3 2 1 4 3 2 2 3 3 1 0 2 2 2 3 3 4 5 7 7 7 7 8 8 8 8 8 8 8 8 8 8 8 8 9 8 6 6 7 7 9 10 11 11
5 4 4 4 3 3 2 2 4 4 2 3 4 4 1 1 2 2 3 3 4 5 6 7 7 6 7 7 7 8 8 8 8 8 8 8 8 7 7 8 8 7 6 6 6 8 9 10 10
5 5 2 3 4 4 2 3 2 4 3 2 4 5 4 4 3 3 3 4 4 6 6 7 7 7 7 6 7 8 8 8 8 8 9 8 8 8 7 7 7 7 6 6 6 7 9 10 10
4 4 4 5 5 4 2 2 1 2 3 1 1 2 2 5 5 4 3 3 3 4 5 6 7 8 7 6 6 7 8 8 8 8 8 8 7 7 7 7 7 7 6 5 6 7 8 9 10
4 3 5 3 3 3 3 3 3 3 1 1 1 0 3 6 6 5 4 2 1 2 3 4 5 6 7 6 6 7 6 7 7 7 7 7 6 6 6 7 7 7 7 5 6 6 8 9 8
3 4 2 1 0 1 3 2 3 5 4 7 6 5 6 6 6 5 4 3 2 1 1 3 4 5 6 5 5 6 5 6 5 6 6 5 5 5 6 6 6 6 6 5 5 6 6 7 8
2 1 1 1 0 1 2 2 3 5 7 4 6 8 8 7 7 7 6 4 2 1 1 1 3 4 5 5 4 4 4 5 4 4 4 4 4 4 4 4 4 5 5 5 5 5 6 7 7
2 1 0 1 0 1 1 3 3 5 4 1 5 7 8 8 6 5 4 3 3 2 1 1 2 3 4 4 4 4 3 3 3 3 3 3 3 2 3 3 4 4 4 4 4 4 4 5 6
1 0 1 2 1 1 2 3 2 7 2 4 5 7 7 8 7 5 4 4 4 3 2 1 1 2 3 3 3 3 2 2 2 2 2 2 3 2 2 2 3 3 3 3 3 3 3 3 4
1 1 3 2 1 1 0 5 6 5 3 4 5 6 6 5 5 6 6 5 4 3 2 1 1 2 2 2 2 2 2 2 2 2 2 2 2 2 2 1 2 2 2 2 4 4 4 3 3
2 2 3 3 1 1 2 8 5 3 4 5 5 4 4 4 4 4 3 3 3 2 2 1 0 1 1 1 1 1 2 2 1 1 1 1 1 1 2 1 1 2 2 3 3 2 2 2 2
3 1 4 5 2 1 4 8 5 1 4 6 5 5 5 3 2 2 2 2 2 2 2 1 1 1 0 1 1 1 1 1 1 1 1 1 1 1 2 1 1 2 2 2 2 2 2 3 2
4 4 5 6 3 2 5 10 9 4 4 6 6 5 5 4 4 2 1 1 2 2 2 2 1 1 0 1 1 1 1 2 1 1 0 0 1 0 1 1 1 2 2 1 2 2 1 3 3
3 4 6 6 2 3 8 12 12 7 5 6 6 5 5 5 2 1 1 1 1 1 2 2 1 1 1 0 1 1 2 2 2 1 1 1 1 1 1 1 1 1 1 2 2 2 2 2 3
3 4 6 6 1 3 6 11 9 6 5 6 6 5 5 3 1 1 1 1 1 1 2 1 1 2 2 2 1 1 2 2 2 2 1 1 1 1 1 1 1 1 1 2 2 3 2 1 2
4 6 6 5 4 1 4 8 5 3 2 2 3 4 3 4 3 2 1 1 1 1 2 2 2 2 2 2 1 1 1 1 2 2 2 2 2 2 2 2 2 2 2 3 3 3 3 3 2
6 4 4 3 2 4 1 6 6 4 4 4 4 3 3 3 3 2 2 2 2 2 2 2 3 2 2 2 2 2 3 3 4 3 3 3 3 3 3 2 2 2 2 3 4 4 3 4 4
4 1 1 1 3 3 1 4 8 2 4 5 5 4 4 3 3 3 3 3 2 2 2 2 3 3 2 3 3 4 4 4 3 3 3 3 3 3 3 3 3 3 2 3 4 4 4 3 4
1 2 3 3 3 4 5 5 7 4 5 5 5 4 4 3 2 2 2 2 2 2 2 2 3 3 3 3 4 5 5 4 4 4 4 3 3 3 3 3 4 3 3 4 5 5 5 4 4
3 3 3 4 2 6 3 4 9 5 4 4 5 5 4 2 2 2 2 3 3 3 3 3 4 4 4 4 5 5 6 6 7 6 5 4 3 3 4 4 4 4 4 5 5 5 4 5 4
2 4 4 4 5 5 2 7 7 3 2 2 2 3 2 2 2 3 3 3 4 4 4 4 5 5 5 5 5 5 5 5 5 6 5 5 4 4 4 5 4 4 5 5 5 4 5 4 5
2 2 2 4 1 3 6 6 7 1 3 4 4 4 4 3 3 3 4 4 4 4 5 5 5 5 5 5 5 5 5 5 5 5 5 4 4 4 4 5 5 5 5 6 5 5 5 5 5
2 4 3 3 2 5 6 5 4 4 4 5 5 6 5 4 5 5 4 5 5 4 5 5 5 5 6 5 5 4 5 5 5 5 5 5 5 5 4 5 5 5 6 6 6 5 5 6 6
2 2 2 2 3 4 4 6 3 4 3 3 4 5 5 5 5 5 5 5 5 5 5 5 5 5 5 5 4 4 5 5 5 6 6 5 5 5 5 5 5 6 7 7 6 7 6 7 6
3 4 5 3 4 4 4 7 2 1 2 2 4 6 6 5 5 5 5 6 6 6 6 5 5 5 5 4 4 4 4 4 6 6 6 6 6 6 6 6 6 7 7 7 8 8 8 8 8
Wind_Direction
349 6 58 57 59 57 225 244 211 159 185 142 96 115 129 134 147 158 328 348 3 3 2 18 51 58 59 63 61 57 56 56 54 53 54 55 60 68 78 83 85 89 91 90 91 95 100 101 100
352 28 53 63 101 184 254 239 210 197 161 118 70 79 95 95 59 87 355 344 5 17 23 26 55 57 57 60 61 59 57 58 54 51 49 51 55 61 70 80 85 88 89 90 92 95 98 102 100
26 46 80 84 136 189 220 223 208 121 87 100 92 61 108 133 126 144 310 2 26 28 32 37 58 56 55 57 56 56 57 59 56 51 48 47 49 53 61 70 82 85 87 92 95 97 97 102 103
67 49 58 89 202 217 213 228 159 128 77 49 108 94 82 26 155 164 91 50 47 30 30 43 64 59 55 55 54 54 56 56 57 54 50 46 45 47 52 59 76 86 86 90 96 100 102 102 104
56 78 78 88 236 247 246 213 149 138 148 98 122 137 152 352 72 96 91 62 60 34 30 40 64 63 58 55 52 52 53 53 53 54 50 46 43 42 44 49 63 82 87 88 100 103 105 106 106
57 71 114 216 237 257 265 172 138 126 134 123 134 143 196 85 102 107 92 70 59 49 38 38 52 61 60 58 53 51 50 50 50 51 48 44 41 40 40 44 52 71 86 87 101 107 107 108 107
108 111 174 199 223 259 255 139 146 150 156 196 165 151 200 236 187 128 102 73 56 51 43 36 41 53 55 55 55 51 49 48 46 44 45 43 39 40 41 41 46 56 77 87 102 112 110 109 110
117 115 153 197 204 240 221 144 151 145 183 156 149 164 211 213 159 116 95 80 61 45 37 31 36 41 47 51 56 51 47 46 44 39 37 38 37 35 40 42 45 48 63 83 102 109 114 113 110
88 92 204 212 200 226 169 150 118 97 118 121 176 200 205 140 131 114 91 63 53 42 30 32 37 36 39 48 51 49 45 43 42 37 32 33 35 34 35 41 42 44 53 77 94 107 114 112 107
90 164 217 214 191 186 172 174 166 126 136 214 241 18 121 136 145 143 140 139 93 34 23 28 37 40 40 43 46 45 41 39 38 36 32 32 35 36 36 40 41 40 44 65 84 106 111 106 100
130 183 211 275 224 162 171 189 170 158 219 216 202 181 156 153 161 167 172 173 174 144 40 32 40 48 48 44 43 42 41 40 35 32 32 33 35 39 42 43 41 39 40 60 76 92 96 100 99
146 243 202 267 152 159 201 184 193 201 225 213 184 162 162 171 183 187 186 184 164 129 53 41 48 54 53 50 44 47 42 41 34 24 27 38 41 39 39 46 42 47 49 64 77 83 90 97 102
173 249 278 294 358 257 204 227 224 245 251 136 139 157 177 187 195 195 186 176 166 162 155 90 49 58 54 55 46 43 45 40 28 27 24 37 51 41 41 48 50 44 51 68 77 85 92 96 98
190 164 306 293 256 266 232 265 231 258 205 154 162 182 192 195 191 184 181 185 188 186 185 145 64 64 62 48 39 36 46 45 39 30 26 37 50 60 60 57 50 44 49 64 86 101 103 107 107
89 9 326 286 222 241 224 283 234 235 161 180 195 200 202 202 194 198 198 195 195 189 178 154 107 58 61 49 35 36 32 47 49 31 32 41 43 69 84 78 52 38 50 79 84 93 99 105 102
55 39 309 284 175 247 161 259 259 185 179 211 217 214 214 212 208 209 201 191 184 169 163 176 5 33 41 38 37 38 26 39 43 40 43 38 36 56 81 89 63 41 72 96 100 105 118 118 119
35 290 267 285 193 163 201 254 272 203 207 230 230 227 222 222 231 217 202 186 180 175 170 178 167 169 7 26 42 42 32 19 17 41 49 38 48 53 82 100 77 77 84 104 124 116 140 143 139
243 245 260 261 257 197 236 257 275 260 232 236 238 236 224 221 234 225 206 190 174 175 172 181 186 192 355 27 31 16 4 354 353 359 67 94 79 76 88 107 81 102 116 136 133 137 133 153 154
193 217 258 262 244 228 245 263 274 268 247 244 242 239 234 236 235 204 182 168 152 162 170 186 179 210 194 278 290 303 294 304 301 299 264 198 165 174 131 144 124 130 171 180 155 146 135 149 143
215 248 264 281 273 240 272 274 271 256 232 230 227 231 234 239 255 225 181 148 179 203 208 211 214 225 229 246 257 253 260 268 277 276 275 227 198 200 195 165 170 167 176 177 161 142 158 166 140
231 226 249 273 317 296 316 294 272 266 256 272 248 236 234 232 239 242 234 233 239 252 229 243 248 252 251 258 274 309 304 294 289 282 277 259 222 204 202 193 177 184 185 194 184 167 166 178 176
252 237 242 266 307 286 357 285 277 272 294 287 280 271 257 256 252 244 245 247 248 264 265 257 253 256 255 241 229 234 242 250 256 258 258 262 230 208 201 199 191 194 188 197 193 180 182 174 179
234 306 234 225 193 291 248 228 280 308 287 283 276 267 266 254 239 244 258 256 275 287 282 278 269 268 254 237 234 238 245 247 254 257 243 247 235 217 205 203 197 204 197 200 189 186 189 191 186
174 45 67 61 87 264 222 196 273 245 243 274 277 279 282 276 271 279 291 297 300 304 299 295 274 275 266 247 239 236 236 238 244 250 237 242 238 223 213 211 205 210 207 205 197 190 192 197 197
59 71 9 343 335 253 201 214 249 250 250 254 277 287 292 289 285 298 311 310 305 299 295 291 281 270 262 252 242 238 236 231 231 237 229 231 235 233 220 216 213 217 216 206 194 192 200 198 199
207 152 168 229 251 283 255 236 255 261 299 298 287 289 315 320 309 305 302 301 300 293 292 287 279 274 259 252 248 239 237 234 237 235 229 229 233 233 216 211 218 225 215 206 198 199 206 200 206
154 188 171 155 260 276 268 279 298 259 345 355 355 355 340 322 316 315 319 317 305 295 294 288 280 279 268 259 250 241 233 234 237 238 228 232 234 231 214 211 217 226 216 204 202 209 210 204 211
137 148 108 141 222 269 285 272 262 288 301 326 340 336 327 332 333 329 323 319 311 300 300 302 287 279 278 269 255 253 240 240 239 238 229 229 231 231 222 221 221 222 215 206 205 213 212 207 215
141 158 161 165 182 199 268 272 244 237 270 298 313 321 321 326 326 322 323 320 318 316 309 306 301 293 285 274 265 261 251 245 242 240 233 231 233 233 230 227 227 225 221 211 213 217 212 210 214
190 194 165 191 240 208 228 269 297 240 311 317 324 328 327 325 325 325 327 329 329 325 319 308 305 301 289 280 271 265 263 252 247 242 238 232 233 233 234 231 232 230 221 215 215 218 213 211 212
Height
1493 1494 1496 1498 1503 1516 1517 1512 1509 1509 1510 1510 1510 1511 1513 1516 1519 1524 1521 1518 1519 1520 1521 1522 1523 1524 1524 1525 1526 1526 1527 1528 1528 1529 1530 1530 1531 1532 1533 1534 1534 1535 1536 1537 1537 1538 1539 1540 1540
1493 1495 1497 1498 1510 1520 1517 1510 1509 1508 1509 1509 1510 1511 1512 1515 1516 1517 1517 1518 1519 1520 1521 1522 1523 1523 1524 1524 1525 1526 1526 1527 1528 1529 1529 1530 1531 1532 1532 1533 1534 1535 1536 1537 1538 1538 1539 1540 1541
1493 1495 1497 1502 1513 1516 1511 1507 1508 1508 1508 1509 1510 1511 1513 1515 1516 1516 1516 1517 1519 1520 1520 1521 1522 1523 1523 1524 1524 1525 1526 1526 1527 1528 1529 1530 1530 1531 1532 1533 1534 1535 1536 1537 1538 1539 1539 1540 1541
1494 1496 1498 1507 1511 1510 1508 1506 1507 1507 1509 1509 1510 1512 1514 1515 1515 1516 1516 1517 1518 1519 1520 1521 1522 1522 1523 1523 1523 1524 1524 1525 1526 1527 1528 1529 1530 1531 1531 1532 1533 1534 1536 1536 1537 1538 1539 1540 1542
1494 1495 1504 1512 1510 1508 1506 1506 1506 1507 1508 1510 1511 1512 1513 1515 1515 1515 1516 1517 1517 1519 1519 1520 1521 1521 1522 1522 1523 1523 1523 1524 1525 1526 1527 1528 1529 1530 1531 1531 1533 1534 1535 1536 1537 1538 1539 1540 1541
1494 1497 1510 1513 1509 1507 1506 1505 1506 1507 1509 1510 1511 1512 1512 1514 1514 1515 1515 1516 1517 1518 1519 1519 1520 1520 1521 1521 1521 1522 1522 1523 1524 1524 1525 1527 1528 1529 1530 1531 1532 1533 1534 1535 1536 1537 1539 1540 1541
1495 1502 1509 1510 1509 1507 1505 1505 1505 1506 1508 1509 1510 1511 1511 1512 1513 1514 1515 1515 1516 1517 1518 1518 1519 1519 1520 1520 1520 1521 1521 1522 1522 1523 1524 1525 1526 1528 1529 1530 1531 1532 1533 1534 1535 1536 1538 1539 1541
1495 1502 1508 1511 1509 1506 1504 1504 1504 1505 1507 1508 1509 1509 1509 1511 1512 1513 1514 1514 1515 1516 1516 1517 1517 1518 1518 1518 1519 1519 1520 1520 1521 1521 1522 1523 1525 1526 1527 1528 1529 1530 1531 1533 1534 1535 1537 1538 1540
1495 1506 1509 1508 1507 1504 1503 1504 1505 1505 1506 1506 1507 1508 1508 1509 1510 1511 1512 1513 1513 1514 1515 1515 1515 1516 1517 1517 1517 1518 1518 1519 1519 1520 1520 1521 1523 1524 1525 1527 1528 1529 1530 1531 1532 1534 1536 1537 1539
1496 1506 1504 1502 1502 1501 1502 1502 1504 1505 1505 1505 1505 1505 1506 1507 1508 1508 1509 1510 1511 1512 1513 1513 1514 1514 1515 1515 1515 1516 1516 1517 1517 1518 1519 1520 1521 1522 1523 1525 1526 1527 1528 1530 1531 1533 1534 1536 1537
1498 1502 1501 1501 1500 1500 1501 1502 1503 1503 1504 1502 1501 1502 1504 1505 1506 1507 1507 1508 1509 1510 1511 1511 1512 1512 1512 1513 1513 1514 1515 1515 1516 1516 1517 1518 1519 1520 1521 1523 1524 1525 1527 1528 1530 1531 1533 1534 1536
1500 1500 1500 1500 1500 1500 1500 1500 1501 1500 1498 1499 1500 1501 1501 1502 1503 1504 1505 1506 1507 1508 1509 1509 1510 1510 1510 1511 1511 1512 1512 1513 1514 1514 1515 1516 1516 1517 1519 1520 1522 1523 1525 1526 1528 1529 1531 1533 1534
1499 1500 1499 1499 1500 1500 1500 1499 1499 1497 1496 1497 1498 1498 1499 1500 1501 1502 1504 1505 1505 1506 1506 1507 1507 1507 1508 1508 1509 1509 1510 1511 1511 1512 1513 1513 1514 1515 1516 1518 1519 1521 1522 1524 1526 1527 1529 1531 1532
1499 1499 1499 1499 1499 1499 1499 1498 1499 1493 1495 1495 1495 1496 1497 1498 1499 1500 1501 1501 1502 1503 1504 1504 1505 1505 1505 1505 1506 1506 1507 1508 1509 1509 1510 1511 1512 1513 1514 1515 1516 1518 1520 1522 1523 1525 1526 1528 1530
1499 1500 1499 1498 1498 1498 1499 1498 1495 1491 1493 1493 1493 1494 1495 1496 1497 1497 1498 1498 1499 1500 1501 1501 1502 1502 1502 1502 1503 1503 1504 1505 1506 1507 1507 1508 1509 1510 1511 1512 1514 1515 1517 1519 1520 1522 1524 1526 1527
1500 1502 1503 1498 1498 1498 1502 1497 1490 1490 1490 1490 1491 1492 1493 1494 1494 1495 1496 1496 1497 1497 1498 1498 1499 1499 1499 1499 1500 1500 1501 1502 1503 1503 1504 1505 1506 1507 1508 1509 1511 1513 1514 1516 1517 1519 1521 1523 1525
1504 1506 1503 1499 1497 1498 1499 1495 1488 1488 1489 1488 1489 1489 1490 1490 1491 1492 1492 1493 1493 1494 1495 1495 1495 1495 1496 1496 1496 1497 1498 1498 1499 1500 1501 1502 1503 1504 1505 1507 1508 1510 1511 1513 1514 1517 1519 1520 1522
1504 1505 1503 1500 1496 1498 1498 1493 1487 1487 1487 1486 1486 1487 1487 1486 1487 1488 1489 1489 1490 1491 1492 1492 1492 1492 1493 1493 1493 1493 1494 1494 1495 1496 1497 1498 1499 1501 1502 1504 1505 1507 1508 1510 1511 1513 1515 1517 1519
1500 1502 1502 1498 1496 1497 1495 1491 1485 1484 1484 1484 1483 1483 1483 1483 1484 1485 1485 1486 1486 1487 1488 1488 1489 1489 1489 1489 1488 1489 1489 1490 1491 1492 1493 1494 1496 1498 1499 1500 1502 1503 1505 1506 1508 1510 1512 1514 1516
1500 1501 1500 1496 1495 1496 1494 1489 1483 1481 1480 1480 1479 1479 1479 1480 1480 1481 1481 1482 1482 1483 1484 1484 1485 1485 1485 1485 1485 1486 1486 1486 1487 1488 1489 1491 1492 1494 1495 1497 1498 1500 1501 1503 1505 1506 1508 1510 1512
1498 1500 1499 1498 1496 1495 1496 1487 1481 1478 1478 1477 1477 1476 1476 1476 1476 1477 1477 1478 1479 1479 1480 1481 1481 1481 1481 1482 1482 1482 1483 1483 1483 1484 1485 1487 1488 1490 1492 1493 1495 1496 1498 1500 1501 1503 1504 1506 1509
1496 1495 1496 1497 1500 1501 1499 1497 1481 1479 1478 1475 1474 1474 1473 1474 1474 1474 1474 1475 1475 1476 1477 1477 1478 1478 1478 1478 1478 1478 1478 1478 1479 1480 1481 1483 1484 1486 1488 1489 1491 1492 1494 1496 1498 1499 1502 1503 1505
1495 1495 1497 1497 1500 1504 1502 1502 1484 1481 1478 1474 1473 1472 1471 1471 1471 1471 1472 1472 1473 1473 1474 1474 1474 1474 1474 1474 1474 1474 1474 1475 1475 1476 1478 1479 1480 1482 1484 1485 1487 1489 1490 1492 1494 1496 1498 1500 1501
1495 1497 1499 1503 1505 1504 1499 1501 1487 1481 1476 1473 1471 1470 1470 1469 1469 1470 1470 1470 1470 1471 1470 1470 1470 1470 1470 1470 1470 1470 1470 1471 1471 1472 1473 1474 1476 1477 1479 1481 1483 1485 1486 1488 1490 1492 1494 1496 1498
1496 1500 1505 1505 1509 1500 1499 1497 1485 1474 1473 1472 1471 1469 1468 1468 1467 1467 1467 1467 1467 1467 1466 1466 1466 1466 1466 1466 1465 1465 1466 1466 1467 1467 1468 1470 1471 1473 1475 1477 1478 1480 1482 1484 1486 1488 1490 1492 1494
1498 1499 1504 1505 1505 1501 1499 1495 1479 1473 1471 1470 1470 1469 1467 1466 1466 1465 1465 1465 1464 1464 1463 1462 1462 1461 1461 1461 1461 1461 1461 1461 1462 1463 1464 1465 1467 1469 1470 1472 1474 1476 1477 1479 1481 1483 1486 1488 1490
1498 1501 1501 1507 1512 1513 1499 1491 1479 1471 1471 1470 1469 1467 1466 1465 1464 1464 1463 1463 1462 1461 1460 1459 1458 1457 1457 1457 1456 1456 1456 1457 1457 1458 1459 1461 1462 1464 1466 1467 1469 1470 1472 1474 1477 1478 1481 1483 1486
1498 1500 1506 1507 1506 1505 1496 1491 1481 1473 1471 1470 1469 1467 1465 1464 1463 1462 1461 1460 1459 1458 1457 1456 1455 1454 1453 1452 1452 1452 1452 1452 1453 1454 1455 1456 1457 1459 1460 1462 1463 1465 1467 1469 1471 1473 1476 1479 1481
1500 1501 1501 1504 1505 1506 1501 1485 1475 1473 1471 1471 1469 1467 1465 1464 1462 1461 1459 1458 1457 1455 1454 1452 1451 1449 1448 1448 1447 1447 1447 1448 1448 1449 1450 1451 1452 1454 1455 1457 1458 1460 1462 1464 1466 1468 1470 1473 1475
1496 1497 1499 1500 1502 1507 1504 1487 1473 1472 1470 1470 1468 1466 1465 1463 1461 1460 1458 1456 1454 1452 1450 1448 1447 1445 1445 1444 1443 1443 1443 1444 1444 1444 1445 1446 1447 1449 1450 1452 1453 1455 1456 1458 1460 1462 1464 1467 1469